"startDT [UTC]","vpos","CH4 [ppm]","stdev(CH4) [ppm]","CO2 [ppm]","stdev(CO2) [ppm]","H2O_reported [%]","stdev(H2O_reported)","CavityPressure [torr]","CavityTemp [C]","OutletValve","CH4_dry [ppm]","CO2_dry [ppm]","DasTemp [C]","EtalonTemp [C]","WarmBoxTemp [C]","MPVPosition","T_ECpre [C]","T_EC1 [C]","T_EC2 [C]","p_inlet [hPa]","p_in [hPa]","p_out [hPa]","T_inlet [C]","RH_inlet [%]","dwpt_inlet [C]","T_vent [C]","RH_vent [%]","dwpt_vent [C]","flow_vent [l min-1]","flow_inlet [l min-1]","dwpt_sample [C]","T_room [C]"
2015-08-06 00:00:00,0.0,1.90638,0.00039,382.799,0.185,1.1297,0.0028,140.000,45.000,34482.24474,1.92833,388.198,33.119,45.068,45.000,0.00,0.10,-272.73,-272.80,-8,1004,-6,23.9,30.3,5.4,23.6,31.2,5.6,5.73,1.98,3.6,27.8
2015-08-06 00:01:00,0.0,1.90680,0.00048,382.895,0.238,1.1239,0.0033,140.000,45.000,34485.26491,1.92866,388.260,33.125,45.068,45.000,0.00,0.10,-272.73,-272.80,-8,1004,-6,23.9,30.0,5.3,23.7,31.0,5.5,5.73,1.95,3.6,27.8
2015-08-06 00:02:00,0.0,1.90691,0.00042,382.901,0.088,1.1234,0.0014,139.999,45.000,34483.86166,1.92878,388.261,33.124,45.068,45.000,0.00,0.10,-272.72,-272.79,-8,1004,-6,23.9,30.1,5.2,23.6,30.9,5.5,5.73,1.89,3.6,27.8
2015-08-06 00:03:00,0.0,1.90706,0.00049,382.790,0.124,1.1276,0.0021,139.999,45.000,34483.07867,1.92898,388.170,33.125,45.068,45.000,0.00,0.10,-272.73,-272.79,-7,1004,-6,23.9,30.2,5.3,23.7,31.1,5.5,5.73,1.86,3.6,27.8
2015-08-06 00:04:00,0.0,1.90709,0.00038,382.830,0.099,1.1309,0.0019,139.995,45.000,34483.04289,1.92914,388.231,33.125,45.068,45.000,0.00,0.10,-272.73,-272.80,-7,1004,-6,23.9,30.4,5.4,23.7,31.2,5.6,5.73,1.90,3.6,27.8
2015-08-06 00:05:00,0.0,1.90709,0.00026,382.949,0.073,1.1326,0.0020,140.003,45.000,34485.80056,1.92910,388.359,33.125,45.068,45.000,0.00,0.10,-272.73,-272.79,-8,1004,-6,23.9,30.4,5.4,23.7,31.3,5.6,5.73,1.96,3.6,27.8
2015-08-06 00:06:00,0.0,1.90770,0.00048,382.792,0.263,1.1300,0.0016,139.999,45.000,34483.90391,1.92966,388.212,33.127,45.068,45.000,0.00,0.10,-272.73,-272.78,-8,1004,-6,23.9,30.3,5.4,23.6,31.1,5.5,5.73,1.99,3.6,27.7
2015-08-06 00:07:00,0.0,1.90765,0.00034,382.724,0.238,1.1305,0.0027,139.999,45.000,34483.10440,1.92968,388.111,33.139,45.068,45.000,0.00,0.10,-272.73,-272.79,-8,1004,-6,23.9,30.3,5.4,23.6,31.2,5.6,5.73,1.94,3.6,27.7
2015-08-06 00:08:00,0.0,1.90742,0.00028,382.700,0.216,1.1377,0.0015,139.996,45.000,34483.02621,1.92959,388.121,33.132,45.068,45.000,0.00,0.10,-272.73,-272.79,-7,1004,-6,23.9,30.5,5.5,23.7,31.3,5.7,5.73,1.88,3.6,27.7
2015-08-06 00:09:00,0.0,1.90750,0.00042,382.767,0.118,1.1393,0.0025,140.001,45.000,34482.67376,1.92968,388.214,33.131,45.068,45.000,0.00,0.10,-272.73,-272.79,-8,1004,-6,23.9,30.5,5.5,23.6,31.4,5.7,5.73,1.87,3.6,27.7
2015-08-06 00:10:00,0.0,1.90727,0.00067,382.686,0.092,1.1368,0.0023,140.000,45.000,34484.93684,1.92943,388.113,33.128,45.068,45.000,0.00,0.10,-272.73,-272.79,-8,1004,-6,23.9,30.4,5.4,23.7,31.4,5.7,5.73,1.91,3.6,27.7
2015-08-06 00:11:00,0.0,1.90774,0.00042,382.754,0.145,1.1370,0.0025,139.998,45.000,34485.02731,1.92985,388.181,33.133,45.068,45.000,0.00,0.10,-272.73,-272.80,-8,1004,-6,23.9,30.4,5.5,23.7,31.3,5.7,5.73,1.97,3.6,27.7
2015-08-06 00:12:00,0.0,1.90757,0.00044,382.635,0.219,1.1354,0.0017,139.997,45.000,34486.00982,1.92965,388.060,33.125,45.068,45.000,0.00,0.10,-272.73,-272.78,-7,1004,-6,23.9,30.4,5.4,23.7,31.3,5.7,5.73,1.98,3.6,27.7
2015-08-06 00:13:00,0.0,1.90790,0.00038,382.653,0.181,1.1346,0.0019,139.997,45.000,34485.29488,1.93002,388.070,33.127,45.068,45.000,0.00,0.10,-272.72,-272.79,-8,1005,-6,23.9,30.4,5.5,23.6,31.2,5.6,5.73,1.93,3.6,27.7
2015-08-06 00:14:00,0.0,1.90759,0.00042,382.536,0.185,1.1376,0.0033,140.001,45.000,34487.61217,1.92975,387.977,33.122,45.068,45.000,0.00,0.10,-272.73,-272.80,-8,1004,-6,23.9,30.5,5.5,23.7,31.4,5.7,5.73,1.87,3.6,27.8
2015-08-06 00:15:00,0.0,1.90777,0.00025,382.737,0.130,1.1370,0.0021,140.001,45.000,34487.53519,1.92991,388.164,33.125,45.068,45.000,0.00,0.10,-272.73,-272.80,-8,1004,-6,23.9,30.4,5.5,23.7,31.3,5.7,5.73,1.87,3.6,27.8
2015-08-06 00:16:00,0.0,1.90801,0.00033,382.645,0.111,1.1297,0.0035,139.999,45.000,34486.60917,1.93001,388.042,33.127,45.068,45.000,0.00,0.10,-272.73,-272.79,-7,1004,-6,23.9,30.2,5.4,23.7,31.1,5.6,5.73,1.93,3.6,27.8
2015-08-06 00:17:00,0.0,1.90816,0.00026,382.813,0.107,1.1263,0.0021,139.998,45.000,34488.59560,1.93006,388.186,33.134,45.068,45.000,0.00,0.10,-272.74,-272.79,-8,1005,-6,23.9,30.1,5.3,23.7,31.0,5.6,5.73,1.97,3.6,27.8
2015-08-06 00:18:00,0.0,1.90812,0.00048,382.850,0.118,1.1231,0.0032,139.998,45.000,34489.59134,1.92999,388.209,33.166,45.068,45.000,0.00,0.10,-272.74,-272.79,-8,1004,-6,23.9,30.0,5.3,23.7,30.9,5.5,5.73,1.98,3.6,27.8
2015-08-06 00:19:00,0.0,1.90839,0.00034,382.956,0.055,1.1208,0.0015,139.999,45.000,34489.35078,1.93021,388.309,33.157,45.068,45.000,0.00,0.10,-272.73,-272.79,-8,1004,-6,23.9,29.9,5.2,23.7,30.8,5.5,5.73,1.92,3.6,27.8
2015-08-06 00:20:00,0.0,1.90840,0.00038,382.670,0.195,1.1198,0.0018,140.000,45.000,34490.15590,1.93018,388.018,33.137,45.068,45.000,0.00,0.10,-272.73,-272.79,-8,1004,-6,23.9,29.9,5.2,23.7,30.8,5.4,5.73,1.87,3.6,27.8
2015-08-06 00:21:00,0.0,1.90834,0.00049,382.694,0.242,1.1270,0.0045,139.999,45.000,34487.51932,1.93029,388.074,33.132,45.068,45.000,0.00,0.10,-272.73,-272.79,-7,1004,-6,23.9,30.1,5.3,23.7,30.9,5.5,5.73,1.88,3.6,27.9
2015-08-06 00:22:00,0.0,1.90841,0.00031,382.650,0.183,1.1321,0.0023,140.001,45.000,34489.06796,1.93047,388.060,33.132,45.068,45.000,0.00,0.10,-272.73,-272.79,-8,1005,-6,23.9,30.2,5.4,23.7,31.1,5.6,5.73,1.93,3.6,27.9
2015-08-06 00:23:00,0.0,1.90824,0.00040,382.550,0.178,1.1311,0.0019,140.000,45.000,34491.23525,1.93031,387.951,33.134,45.068,45.000,0.00,0.10,-272.73,-272.79,-8,1004,-6,23.9,30.2,5.4,23.7,31.1,5.6,5.73,1.98,3.6,27.8
2015-08-06 00:24:00,0.0,1.90807,0.00049,382.688,0.098,1.1339,0.0021,139.997,45.000,34488.27643,1.93011,388.096,33.141,45.068,45.000,0.00,0.10,-272.73,-272.79,-8,1004,-6,23.9,30.3,5.4,23.7,31.2,5.6,5.73,1.97,3.6,27.8
2015-08-06 00:25:00,0.0,1.90864,0.00044,382.849,0.098,1.1291,0.0025,139.999,45.000,34485.89599,1.93065,388.235,33.165,45.068,45.000,0.00,0.10,-272.73,-272.79,-7,1004,-6,23.9,30.2,5.4,23.7,31.1,5.6,5.73,1.92,3.6,27.8
2015-08-06 00:26:00,0.0,1.90843,0.00042,382.848,0.114,1.1252,0.0018,140.002,45.000,34487.89266,1.93033,388.226,33.155,45.068,45.000,0.00,0.10,-272.73,-272.79,-8,1005,-6,23.9,30.0,5.3,23.7,30.9,5.5,5.73,1.87,3.6,27.8
2015-08-06 00:27:00,0.0,1.90872,0.00030,382.678,0.149,1.1206,0.0029,139.997,45.000,34487.12797,1.93054,388.027,33.144,45.068,45.000,0.00,0.10,-272.73,-272.79,-8,1005,-6,23.9,29.9,5.2,23.7,30.8,5.5,5.73,1.88,3.7,27.8
2015-08-06 00:28:00,0.0,1.90890,0.00045,382.632,0.169,1.1217,0.0028,139.996,45.000,34487.26629,1.93071,387.990,33.144,45.068,45.000,0.00,0.10,-272.73,-272.80,-8,1004,-6,23.9,29.9,5.2,23.7,30.8,5.5,5.73,1.94,3.6,27.8
2015-08-06 00:29:00,0.0,1.90899,0.00045,382.723,0.114,1.1256,0.0019,140.004,45.000,34486.81241,1.93096,388.092,33.135,45.068,45.000,0.00,0.10,-272.72,-272.79,-8,1004,-6,24.0,30.1,5.3,23.7,30.9,5.5,5.73,1.98,3.6,27.8
2015-08-06 00:30:00,0.0,1.90831,0.00045,382.606,0.135,1.1276,0.0032,140.000,45.000,34488.39247,1.93032,387.994,33.133,45.068,45.000,0.00,0.10,-272.73,-272.80,-7,1005,-6,23.9,30.1,5.3,23.7,31.0,5.6,5.73,1.97,3.6,27.7
2015-08-06 00:31:00,0.0,1.90856,0.00042,382.726,0.115,1.1258,0.0026,140.002,45.000,34489.70997,1.93043,388.103,33.151,45.068,45.000,0.00,0.10,-272.73,-272.80,-8,1004,-6,23.9,30.0,5.3,23.7,30.9,5.5,5.73,1.90,3.7,27.7
2015-08-06 00:32:00,0.0,1.90833,0.00044,382.739,0.080,1.1230,0.0023,139.997,45.000,34488.37383,1.93027,388.096,33.156,45.068,45.000,0.00,0.10,-272.73,-272.79,-8,1004,-6,23.9,29.9,5.3,23.7,30.9,5.5,5.73,1.87,3.7,27.8
2015-08-06 00:33:00,0.0,1.90858,0.00040,382.708,0.139,1.1147,0.0034,139.999,45.000,34487.92778,1.93025,388.024,33.170,45.068,45.000,0.00,0.10,-272.73,-272.79,-8,1004,-6,24.0,29.7,5.2,23.7,30.6,5.4,5.73,1.89,3.7,27.8
2015-08-06 00:34:00,0.0,1.90841,0.00041,382.629,0.231,1.1124,0.0015,140.000,45.000,34490.06256,1.93007,387.956,33.178,45.068,45.000,0.00,0.10,-272.73,-272.80,-8,1005,-6,23.9,29.6,5.1,23.7,30.5,5.3,5.73,1.95,3.7,27.9
2015-08-06 00:35:00,0.0,1.90871,0.00034,382.603,0.164,1.1122,0.0031,140.002,45.000,34489.22123,1.93036,387.889,33.185,45.068,45.000,0.00,0.10,-272.73,-272.79,-8,1005,-6,24.0,29.7,5.2,23.7,30.5,5.4,5.73,1.98,3.6,27.9
2015-08-06 00:36:00,0.0,1.90844,0.00043,382.590,0.136,1.1188,0.0025,140.001,45.000,34491.64765,1.93020,387.936,33.186,45.068,45.000,0.00,0.10,-272.73,-272.79,-8,1004,-6,24.0,29.8,5.2,23.7,30.7,5.4,5.73,1.96,3.7,27.8
2015-08-06 00:37:00,0.0,1.90867,0.00046,382.348,0.140,1.1171,0.0030,140.002,45.000,34491.90837,1.93044,387.668,33.188,45.068,45.000,0.00,0.10,-272.73,-272.79,-8,1004,-6,23.9,29.8,5.2,23.7,30.7,5.4,5.73,1.90,3.7,27.9
2015-08-06 00:38:00,0.0,1.90790,0.00048,382.599,0.123,1.1296,0.0042,140.003,45.000,34492.53601,1.92990,387.983,33.181,45.068,45.000,0.00,0.10,-272.73,-272.79,-7,1004,-6,23.9,30.2,5.4,23.7,31.0,5.6,5.73,1.86,3.6,27.8
2015-08-06 00:39:00,0.0,1.90734,0.00035,382.715,0.193,1.1302,0.0030,139.997,45.000,34490.02810,1.92942,388.125,33.188,45.068,45.000,0.00,0.10,-272.73,-272.79,-8,1005,-6,24.0,30.1,5.4,23.7,31.0,5.6,5.73,1.89,3.6,27.9
2015-08-06 00:40:00,0.0,1.90730,0.00040,382.385,0.239,1.1288,0.0030,140.001,45.000,34491.32836,1.92929,387.767,33.188,45.068,45.000,0.00,0.10,-272.73,-272.79,-8,1005,-6,24.0,30.1,5.4,23.7,31.0,5.6,5.73,1.96,3.7,27.9
2015-08-06 00:41:00,0.0,1.90723,0.00062,382.746,0.104,1.1345,0.0024,139.997,45.000,34490.45861,1.92927,388.157,33.188,45.068,45.000,0.00,0.10,-272.73,-272.80,-8,1004,-6,24.0,30.2,5.4,23.7,31.1,5.6,5.73,1.98,3.7,27.9
2015-08-06 00:42:00,0.0,1.90701,0.00049,382.528,0.167,1.1236,0.0036,139.998,45.000,34493.37410,1.92892,387.888,33.188,45.068,45.000,0.00,0.10,-272.73,-272.79,-8,1004,-6,23.9,29.9,5.3,23.7,30.9,5.5,5.73,1.95,3.7,27.9
2015-08-06 00:43:00,0.0,1.90698,0.00043,382.647,0.191,1.1237,0.0033,139.998,45.000,34492.37269,1.92883,388.023,33.188,45.068,45.000,0.00,0.10,-272.73,-272.79,-7,1004,-6,23.9,29.9,5.3,23.7,30.9,5.5,5.73,1.88,3.7,27.9
2015-08-06 00:44:00,0.0,1.90752,0.00037,382.584,0.241,1.1197,0.0038,139.999,45.000,34490.92750,1.92923,387.926,33.188,45.068,45.000,0.00,0.10,-272.73,-272.79,-8,1005,-6,23.9,29.9,5.2,23.7,30.7,5.4,5.73,1.87,3.7,27.9
2015-08-06 00:45:00,0.0,1.90773,0.00027,382.623,0.171,1.1228,0.0021,139.998,45.000,34489.28120,1.92963,387.978,33.192,45.068,45.000,0.00,0.10,-272.73,-272.80,-8,1004,-6,23.9,29.9,5.3,23.7,30.8,5.5,5.73,1.91,3.7,27.8
2015-08-06 00:46:00,0.0,1.90767,0.00058,382.213,0.205,1.1207,0.0019,139.999,45.000,34487.54339,1.92949,387.551,33.197,45.068,45.000,0.00,0.10,-272.73,-272.79,-8,1004,-6,24.0,29.9,5.3,23.7,30.7,5.5,5.73,1.96,3.7,27.8
2015-08-06 00:47:00,0.0,1.90756,0.00049,382.644,0.138,1.1280,0.0022,140.001,45.000,34490.60349,1.92954,388.030,33.198,45.068,45.000,0.00,0.10,-272.73,-272.79,-7,1005,-6,24.0,30.0,5.3,23.7,30.9,5.5,5.73,1.99,3.7,27.8
2015-08-06 00:48:00,0.0,1.90741,0.00035,382.664,0.140,1.1178,0.0026,140.001,45.000,34491.90764,1.92915,387.995,33.211,45.068,45.000,0.00,0.10,-272.73,-272.80,-8,1005,-6,24.0,29.7,5.2,23.7,30.7,5.4,5.73,1.94,3.7,27.9
2015-08-06 00:49:00,0.0,1.90745,0.00049,382.730,0.128,1.1156,0.0022,139.999,45.000,34492.71192,1.92922,388.054,33.210,45.068,45.000,0.00,0.10,-272.73,-272.79,-8,1005,-6,24.0,29.7,5.2,23.7,30.6,5.4,5.73,1.89,3.7,27.8
2015-08-06 00:50:00,0.0,1.90746,0.00052,382.839,0.067,1.1122,0.0015,139.997,45.000,34492.15961,1.92908,388.149,33.227,45.068,45.000,0.00,0.10,-272.72,-272.79,-8,1004,-6,24.0,29.6,5.1,23.7,30.5,5.3,5.73,1.87,3.7,27.8
2015-08-06 00:51:00,0.0,1.90763,0.00045,382.598,0.145,1.1103,0.0018,139.998,45.000,34492.41874,1.92920,387.898,33.210,45.068,45.000,0.00,0.10,-272.73,-272.80,-8,1005,-6,24.0,29.6,5.1,23.7,30.4,5.3,5.73,1.92,3.7,27.8
2015-08-06 00:52:00,0.0,1.90754,0.00036,382.523,0.180,1.1188,0.0025,140.002,45.000,34495.16685,1.92932,387.869,33.240,45.068,45.000,0.00,0.10,-272.73,-272.80,-7,1005,-6,24.0,29.8,5.2,23.8,30.6,5.4,5.73,1.97,3.7,27.8
2015-08-06 00:53:00,0.0,1.90710,0.00062,382.576,0.147,1.1217,0.0025,140.003,45.000,34497.14811,1.92892,387.914,33.240,45.068,45.000,0.00,0.10,-272.72,-272.78,-8,1005,-6,24.0,29.9,5.3,23.7,30.8,5.5,5.73,1.98,3.7,27.8
2015-08-06 00:54:00,0.0,1.90725,0.00062,382.538,0.185,1.1261,0.0027,140.001,45.000,34492.98466,1.92919,387.918,33.247,45.068,45.000,0.00,0.10,-272.73,-272.79,-8,1004,-6,24.0,29.9,5.3,23.7,30.8,5.5,5.73,1.93,3.7,27.8
2015-08-06 00:55:00,0.0,1.90701,0.00025,382.296,0.281,1.1245,0.0029,140.000,45.000,34494.45845,1.92887,387.660,33.240,45.068,45.000,0.00,0.10,-272.73,-272.80,-8,1004,-6,24.0,30.0,5.3,23.7,30.8,5.5,5.73,1.88,3.7,27.9
2015-08-06 00:56:00,0.0,1.90709,0.00029,382.401,0.153,1.1337,0.0037,140.002,45.000,34496.95118,1.92916,387.814,33.240,45.068,45.000,0.00,0.10,-272.72,-272.79,-7,1005,-6,24.0,30.2,5.4,23.7,31.1,5.6,5.73,1.87,3.7,27.9
2015-08-06 00:57:00,0.0,1.90732,0.00043,382.459,0.171,1.1297,0.0024,139.995,45.000,34492.28304,1.92932,387.849,33.250,45.068,45.000,0.00,0.10,-272.72,-272.79,-8,1005,-6,24.0,30.1,5.4,23.7,31.0,5.6,5.73,1.92,3.7,27.9
2015-08-06 00:58:00,0.0,1.90715,0.00042,382.450,0.165,1.1308,0.0028,140.000,45.000,34492.70831,1.92920,387.842,33.249,45.068,45.000,0.00,0.10,-272.73,-272.80,-8,1004,-6,24.0,30.1,5.4,23.7,31.0,5.6,5.73,1.98,3.7,27.9
2015-08-06 00:59:00,0.0,1.90714,0.00045,382.330,0.162,1.1368,0.0030,140.001,45.000,34493.06779,1.92925,387.747,33.250,45.068,45.000,0.00,0.10,-272.73,-272.79,-8,1004,-6,24.0,30.3,5.5,23.7,31.1,5.6,5.73,1.97,3.7,27.9
2015-08-06 01:00:00,0.0,1.90730,0.00042,382.437,0.189,1.1391,0.0022,139.998,45.000,34492.62749,1.92947,387.884,33.250,45.068,45.000,0.00,0.10,-272.73,-272.78,-7,1004,-6,24.0,30.3,5.5,23.7,31.2,5.7,5.73,1.92,3.7,27.9
2015-08-06 01:01:00,0.0,1.90690,0.00048,382.405,0.221,1.1428,0.0053,140.003,45.000,34495.43052,1.92918,387.857,33.250,45.068,45.000,0.00,0.10,-272.73,-272.79,-8,1005,-6,24.0,30.5,5.6,23.7,31.3,5.7,5.73,1.87,3.7,27.9
2015-08-06 01:02:00,0.0,1.90687,0.00038,382.383,0.105,1.1442,0.0043,139.999,45.000,34494.92861,1.92913,387.845,33.250,45.068,45.000,0.00,0.10,-272.73,-272.80,-8,1005,-6,24.0,30.4,5.5,23.7,31.4,5.8,5.73,1.87,3.7,27.9
2015-08-06 01:03:00,0.0,1.90689,0.00037,382.327,0.334,1.1337,0.0020,140.000,45.000,34495.01056,1.92900,387.719,33.251,45.068,45.000,0.00,0.10,-272.72,-272.78,-8,1004,-6,24.0,30.1,5.4,23.8,31.1,5.6,5.73,1.93,3.7,27.9
2015-08-06 01:04:00,0.0,1.90701,0.00044,382.373,0.191,1.1401,0.0021,139.999,45.000,34492.83912,1.92915,387.827,33.249,45.068,45.000,0.00,0.10,-272.73,-272.79,-8,1005,-6,24.0,30.4,5.5,23.7,31.2,5.7,5.73,1.97,3.7,27.9
2015-08-06 01:05:00,0.0,1.90723,0.00034,382.402,0.160,1.1415,0.0023,140.000,45.000,34489.86338,1.92948,387.839,33.250,45.068,45.000,0.00,0.10,-272.73,-272.79,-7,1005,-6,24.0,30.4,5.5,23.8,31.3,5.7,5.73,1.98,3.7,27.8
2015-08-06 01:06:00,0.0,1.90685,0.00024,382.407,0.139,1.1407,0.0032,140.002,45.000,34492.15350,1.92908,387.862,33.250,45.068,45.000,0.00,0.10,-272.72,-272.78,-8,1004,-6,24.0,30.3,5.5,23.8,31.2,5.7,5.73,1.93,3.7,27.9
2015-08-06 01:07:00,0.0,1.90718,0.00043,382.248,0.254,1.1390,0.0025,140.000,45.000,34492.12241,1.92937,387.670,33.250,45.068,45.000,0.00,0.10,-272.72,-272.79,-8,1004,-6,24.0,30.4,5.5,23.8,31.2,5.7,5.73,1.88,3.7,27.9
2015-08-06 01:08:00,0.0,1.90711,0.00042,382.276,0.240,1.1358,0.0086,140.000,45.000,34494.59540,1.92913,387.712,33.253,45.068,45.000,0.00,0.10,-272.73,-272.80,-8,1004,-6,24.0,30.1,5.4,23.8,31.1,5.7,5.73,1.87,3.7,27.9
2015-08-06 01:09:00,0.0,1.90752,0.00031,382.261,0.130,1.1262,0.0028,139.998,45.000,34495.47192,1.92948,387.617,33.250,45.068,45.000,0.00,0.10,-272.73,-272.79,-8,1005,-6,24.0,30.0,5.3,23.8,30.8,5.5,5.73,1.92,3.7,27.8
2015-08-06 01:10:00,0.0,1.90757,0.00026,382.401,0.179,1.1272,0.0034,140.003,45.000,34497.30487,1.92952,387.772,33.250,45.068,45.000,0.00,0.10,-272.72,-272.79,-8,1005,-6,24.0,29.9,5.3,23.8,30.9,5.6,5.73,1.98,3.7,27.8
2015-08-06 01:11:00,0.0,1.90736,0.00037,382.301,0.163,1.1229,0.0026,139.995,45.000,34495.27123,1.92924,387.668,33.251,45.068,45.000,0.00,0.10,-272.73,-272.80,-8,1004,-6,24.0,29.8,5.2,23.8,30.7,5.5,5.73,1.98,3.7,27.9
2015-08-06 01:12:00,0.0,1.90786,0.00021,382.390,0.125,1.1241,0.0022,140.001,45.000,34497.62088,1.92972,387.748,33.252,45.068,45.000,0.00,0.10,-272.73,-272.80,-8,1005,-6,24.0,29.8,5.3,23.8,30.8,5.5,5.73,1.94,3.7,27.8
2015-08-06 01:13:00,0.0,1.90772,0.00056,382.397,0.183,1.1207,0.0029,140.001,45.000,34497.06767,1.92955,387.739,33.253,45.068,45.000,0.00,0.10,-272.72,-272.79,-8,1004,-6,24.0,29.8,5.2,23.8,30.6,5.4,5.73,1.87,3.7,27.9
2015-08-06 01:14:00,0.0,1.90736,0.00056,382.273,0.134,1.1310,0.0054,139.996,45.000,34495.94330,1.92942,387.669,33.253,45.068,45.000,0.00,0.10,-272.73,-272.79,-8,1005,-6,24.0,30.1,5.4,23.8,30.9,5.6,5.73,1.87,3.7,27.8
2015-08-06 01:15:00,0.0,1.90722,0.00040,382.264,0.167,1.1363,0.0034,140.003,45.000,34496.54728,1.92932,387.679,33.256,45.068,45.000,0.00,0.10,-272.73,-272.79,-8,1005,-6,24.0,30.2,5.5,23.8,31.1,5.7,5.73,1.92,3.7,27.8
2015-08-06 01:16:00,0.0,1.90724,0.00033,382.014,0.274,1.1347,0.0036,140.002,45.000,34496.05560,1.92932,387.427,33.255,45.068,45.000,0.00,0.10,-272.73,-272.79,-8,1004,-6,24.0,30.2,5.5,23.8,31.0,5.7,5.73,1.97,3.7,27.8
2015-08-06 01:17:00,0.0,1.90753,0.00052,382.146,0.195,1.1391,0.0067,140.001,45.000,34495.97875,1.92969,387.579,33.260,45.068,45.000,0.00,0.10,-272.73,-272.79,-8,1005,-6,24.0,30.1,5.5,23.8,31.1,5.7,5.73,1.98,3.7,27.8
2015-08-06 01:18:00,0.0,1.90777,0.00060,382.148,0.240,1.1202,0.0054,139.999,45.000,34493.76456,1.92959,387.488,33.272,45.068,45.000,0.00,0.10,-272.73,-272.79,-8,1005,-6,24.0,29.7,5.2,23.8,30.7,5.5,5.73,1.93,3.7,27.9
2015-08-06 01:19:00,0.0,1.90797,0.00043,382.254,0.130,1.1186,0.0036,140.002,45.000,34494.39060,1.92976,387.591,33.271,45.068,45.000,0.00,0.10,-272.73,-272.79,-8,1005,-6,24.0,29.6,5.2,23.8,30.5,5.4,5.73,1.88,3.7,27.9
2015-08-06 01:20:00,0.0,1.90756,0.00042,382.276,0.154,1.1137,0.0033,140.001,45.000,34498.19894,1.92922,387.581,33.264,45.068,45.000,0.00,0.10,-272.73,-272.79,-8,1005,-6,24.0,29.6,5.2,23.8,30.4,5.3,5.73,1.87,3.7,27.9
2015-08-06 01:21:00,0.0,1.90800,0.00047,382.407,0.122,1.1219,0.0024,140.002,45.000,34494.84285,1.92982,387.758,33.279,45.068,45.000,0.00,0.10,-272.73,-272.79,-8,1004,-6,24.0,29.8,5.3,23.8,30.6,5.5,5.73,1.91,3.8,27.8
2015-08-06 01:22:00,0.0,1.90815,0.00042,382.076,0.450,1.1230,0.0015,139.994,45.000,34493.46570,1.93003,387.439,33.288,45.068,45.000,0.00,0.10,-272.73,-272.80,-8,1005,-6,24.0,29.8,5.3,23.8,30.7,5.5,5.73,1.96,3.7,27.8
2015-08-06 01:23:00,0.0,1.90766,0.00057,381.962,0.223,1.1344,0.0064,140.003,45.000,34496.01016,1.92977,387.364,33.304,45.068,45.000,0.00,0.10,-272.72,-272.79,-8,1005,-6,24.0,30.2,5.5,23.8,31.0,5.6,5.73,1.98,3.7,27.9
2015-08-06 01:24:00,0.0,1.90799,0.00041,382.106,0.097,1.1464,0.0035,139.998,45.000,34492.43344,1.93027,387.567,33.310,45.068,45.000,0.00,0.10,-272.73,-272.79,-8,1005,-6,24.0,30.5,5.6,23.8,31.3,5.8,5.73,1.94,3.8,27.9
2015-08-06 01:25:00,0.0,1.90753,0.00045,381.967,0.268,1.1476,0.0037,140.001,45.000,34495.91687,1.92992,387.456,33.314,45.068,45.000,0.00,0.10,-272.74,-272.79,-8,1005,-6,24.1,30.4,5.6,23.8,31.4,5.8,5.73,1.89,3.7,27.9
2015-08-06 01:26:00,0.0,1.90752,0.00051,381.946,0.177,1.1505,0.0046,139.999,45.000,34495.32756,1.92989,387.425,33.315,45.068,45.000,0.00,0.10,-272.73,-272.79,-8,1004,-6,24.1,30.5,5.7,23.8,31.4,5.8,5.73,1.87,3.8,27.9
2015-08-06 01:27:00,0.0,1.90743,0.00054,381.954,0.245,1.1501,0.0033,139.998,45.000,34494.50055,1.92989,387.422,33.314,45.068,45.000,0.00,0.10,-272.73,-272.79,-8,1005,-6,24.0,30.6,5.7,23.8,31.4,5.9,5.73,1.90,3.8,27.9
2015-08-06 01:28:00,0.0,1.90766,0.00046,382.242,0.154,1.1504,0.0054,140.002,45.000,34493.05812,1.93005,387.741,33.324,45.068,45.000,0.00,0.10,-272.73,-272.79,-8,1005,-6,24.1,30.4,5.6,23.8,31.5,5.9,5.73,1.95,3.8,27.9
2015-08-06 01:29:00,0.0,1.90775,0.00041,381.927,0.305,1.1517,0.0060,140.001,45.000,34494.28668,1.93018,387.411,33.324,45.068,45.000,0.00,0.10,-272.73,-272.79,-8,1005,-6,24.1,30.7,5.7,23.8,31.4,5.9,5.73,1.98,3.8,27.9
2015-08-06 01:30:00,0.0,1.90751,0.00056,381.939,0.173,1.1712,0.0065,139.997,45.000,34494.07366,1.93042,387.539,33.338,45.068,45.000,0.00,0.10,-272.73,-272.78,-8,1004,-6,24.1,31.0,5.9,23.8,32.0,6.1,5.73,1.96,3.8,27.9
2015-08-06 01:31:00,0.0,1.90765,0.00046,382.057,0.274,1.1451,0.0051,140.003,45.000,34497.78773,1.92988,387.505,33.328,45.068,45.000,0.00,0.10,-272.73,-272.79,-8,1005,-6,24.0,30.3,5.5,23.8,31.3,5.8,5.73,1.91,3.8,27.9
2015-08-06 01:32:00,0.0,1.90816,0.00043,382.327,0.174,1.1393,0.0024,140.001,45.000,34496.19433,1.93036,387.763,33.317,45.068,45.000,0.00,0.10,-272.73,-272.79,-7,1005,-6,24.1,30.1,5.4,23.8,31.1,5.7,5.73,1.87,3.8,27.8
2015-08-06 01:33:00,0.0,1.90797,0.00035,382.151,0.244,1.1307,0.0036,140.001,45.000,34498.21048,1.93004,387.561,33.314,45.068,45.000,0.00,0.10,-272.72,-272.79,-8,1005,-6,24.1,30.0,5.4,23.8,30.9,5.6,5.73,1.89,3.8,27.9
2015-08-06 01:34:00,0.0,1.90801,0.00048,382.324,0.204,1.1448,0.0036,139.997,45.000,34497.61777,1.93026,387.766,33.313,45.068,45.000,0.00,0.10,-272.72,-272.79,-8,1005,-6,24.1,30.3,5.5,23.8,31.2,5.8,5.73,1.94,3.8,27.8
2015-08-06 01:35:00,0.0,1.90876,0.00034,382.407,0.219,1.1194,0.0089,139.999,45.000,34498.07989,1.93056,387.757,33.317,45.068,45.000,0.00,0.10,-272.73,-272.80,-8,1004,-6,24.1,29.5,5.1,23.8,30.6,5.5,5.73,1.98,3.8,27.9
2015-08-06 01:36:00,0.0,1.90867,0.00034,382.485,0.111,1.1193,0.0028,140.001,45.000,34498.22703,1.93047,387.815,33.313,45.068,45.000,0.00,0.10,-272.73,-272.79,-8,1005,-6,24.1,29.6,5.2,23.8,30.5,5.4,5.73,1.97,3.8,27.9
2015-08-06 01:37:00,0.0,1.90847,0.00038,382.475,0.077,1.1171,0.0027,140.000,45.000,34500.04958,1.93026,387.808,33.313,45.068,45.000,0.00,0.10,-272.72,-272.79,-8,1005,-6,24.1,29.5,5.2,23.8,30.4,5.4,5.73,1.91,3.8,27.9
2015-08-06 01:38:00,0.0,1.90822,0.00050,382.206,0.094,1.1245,0.0039,140.001,45.000,34497.96999,1.93006,387.566,33.336,45.068,45.000,0.00,0.10,-272.73,-272.79,-8,1005,-6,24.1,29.8,5.3,23.8,30.6,5.5,5.73,1.87,3.8,27.9
2015-08-06 01:39:00,0.0,1.90843,0.00038,381.933,0.207,1.1394,0.0070,139.997,45.000,34497.12681,1.93066,387.375,33.340,45.068,45.000,0.00,0.10,-272.73,-272.80,-8,1005,-6,24.1,30.3,5.6,23.8,31.0,5.7,5.73,1.88,3.8,27.8
2015-08-06 01:40:00,0.0,1.90743,0.00026,382.188,0.163,1.1585,0.0047,139.999,45.000,34500.27777,1.93004,387.702,33.331,45.068,45.000,0.00,0.10,-272.72,-272.79,-8,1005,-6,24.1,30.6,5.7,23.9,31.6,6.0,5.73,1.93,3.8,27.8
2015-08-06 01:41:00,0.0,1.90792,0.00044,382.087,0.158,1.1406,0.0033,140.000,45.000,34499.24381,1.93017,387.540,33.345,45.068,45.000,0.00,0.10,-272.73,-272.79,-8,1005,-6,24.1,30.1,5.5,23.8,31.2,5.8,5.73,1.98,3.8,27.8
2015-08-06 01:42:00,0.0,1.90805,0.00037,382.344,0.165,1.1363,0.0043,139.998,45.000,34499.49695,1.93008,387.749,33.368,45.068,45.000,0.00,0.10,-272.74,-272.79,-8,1005,-6,24.1,29.9,5.4,23.9,31.0,5.7,5.73,1.97,3.8,27.8
2015-08-06 01:43:00,0.0,1.90853,0.00054,382.349,0.215,1.1132,0.0038,140.003,45.000,34501.62327,1.93029,387.677,33.363,45.068,45.000,0.00,0.10,-272.72,-272.79,-8,1005,-6,24.1,29.3,5.1,23.8,30.3,5.4,5.73,1.93,3.8,27.9
2015-08-06 01:44:00,0.0,1.90833,0.00031,382.286,0.114,1.1219,0.0032,139.996,45.000,34500.21390,1.93014,387.616,33.365,45.068,45.000,0.00,0.10,-272.72,-272.79,-8,1005,-6,24.1,29.6,5.3,23.8,30.5,5.4,5.73,1.88,3.8,27.8
2015-08-06 01:45:00,0.0,1.90874,0.00040,382.520,0.147,1.1261,0.0042,140.000,45.000,34498.88039,1.93064,387.894,33.356,45.068,45.000,0.00,0.10,-272.73,-272.79,-8,1005,-6,24.1,29.8,5.3,23.9,30.6,5.5,5.73,1.87,3.8,27.9
2015-08-06 01:46:00,0.0,1.90861,0.00037,382.407,0.188,1.1294,0.0052,140.002,45.000,34499.04582,1.93067,387.799,33.333,45.068,45.000,0.00,0.10,-272.73,-272.79,-8,1005,-6,24.1,29.8,5.3,23.8,30.7,5.6,5.73,1.91,3.8,27.9
2015-08-06 01:47:00,0.0,1.90886,0.00027,382.505,0.087,1.1150,0.0048,140.000,45.000,34500.09546,1.93054,387.822,33.327,45.068,45.000,0.00,0.10,-272.72,-272.79,-8,1005,-6,24.1,29.4,5.1,23.8,30.4,5.4,5.73,1.96,3.8,27.8